Regional Weather Roundup
Issued by NWS Green Bay, WI

Home | Current Version | Previous Version | Text Only | Print | Product List | Glossary On
Versions: 1 2 3 4 5 6 7 8 9 10 11 12 13 14 15 16 17 18 19 20 21 22 23 24 25 26 27 28 29 30 31 32 33 34 35 36 37 38 39 40 41 42 43 44 45 46 47 48 49 50
000
ASUS43 KGRB 011359
RWRGRB

NORTH-CENTRAL AND NORTHEAST WISCONSIN REGIONAL WEATHER ROUNDUP
NATIONAL WEATHER SERVICE GREEN BAY WI
800 AM CST SUN FEB 01 2015

WIZ005-009-010>012-018-019-011500-
NORTH CENTRAL WISCONSIN

CITY           SKY/WX    TMP DP  RH WIND       PRES   REMARKS
IRONWOOD       CLOUDY     1   1 100 CALM      30.27S
MANITOWISH WTR NOT AVBL
ARBOR VITAE    NOT AVBL
EAGLE RIVER    NOT AVBL
LAND O LAKES   NOT AVBL
RHINELANDER    CLOUDY     6  -1  73 NE9       30.20S WCI  -8
PHILLIPS       NOT AVBL
ANTIGO         NOT AVBL
TOMAHAWK       NOT AVBL
MERRILL        NOT AVBL
$$

WIZ013-073-011500-
NORTHEAST WISCONSIN

CITY           SKY/WX    TMP DP  RH WIND       PRES   REMARKS
IRON MOUNTAIN  CLOUDY     9   2  73 NE7       30.25S WCI  -2
MARINETTE      CLOUDY     9   1  72 NE18G26   30.27F WCI -10
$$

WIZ017-030-035>037-045-011500-
CENTRAL WISCONSIN

CITY           SKY/WX    TMP DP  RH WIND       PRES   REMARKS
MEDFORD        NOT AVBL
WAUSAU         CLOUDY    10   1  67 NE13G22   30.18R WCI  -5
MOSINEE        CLOUDY    10   3  72 NE13      30.17S WCI  -5
MARSHFIELD     LGT SNOW  11   6  81 NE12      30.16R VSB 3/4 WCI  -3
WISC RAPIDS    LGT SNOW  11   5  77 NE10G21   30.18R WCI  -3
STEVENS POINT  NOT AVBL
WAUPACA        NOT AVBL
SHAWANO        NOT AVBL
CLINTONVILLE   NOT AVBL
$$

WIZ038-039-048-051-011500-
FOX VALLEY

CITY           SKY/WX    TMP DP  RH WIND       PRES   REMARKS
NWS GREEN BAY  MIX PCPN  12   5  73 NE31G38   30.21F WCI -10
APPLETON       LGT SNOW  12   9  85 NE15G25   30.17  WCI  -4
OSHKOSH        LGT SNOW  13   9  84 NE21G29   30.14S FOG     WCI  -5
FOND DU LAC    LGT SNOW  15  11  83 NE17      30.13S VSB 1   WCI  -1
$$

WIZ022-050-052-011500-
EAST CENTRAL WISCONSIN

CITY           SKY/WX    TMP DP  RH WIND       PRES   REMARKS
STURGEON BAY   CLOUDY    10   3  72 N12       30.25S WCI  -4
MANITOWOC      LGT SNOW  19  18  93 NE13G22   30.18S FOG     WCI   7
SHEBOYGAN      SNOW      20  16  84 NE20G28   30.13S VSB 1/2 WCI   4
$$

LMZ563-521-522-541>543-011500-
LAKESHORE

STATION/POSITION TIME  TEMP    WIND        PRES    VSBY  WAVE
                       AIR SEA DIR/SP/G                  HT/PER
                 (UTC) (F)     (DEG/KT/KT) (MB)    (MI)  (FT/S)
SHEBOYGAN LKSHOR 1300   22      60/ 30/ 32 1021.7F
KEWAUNEE LKSHORE 1300   19      50/ 22/ 29 1021.8F
NORTHPORT PIER   1300   10      10/ 17/ 21 1025.7F
SISTER BAY LKSHO 1300   10      10/ 13/ 20   N/A
STURGEON BAY CG  1300   18      60/ 15     1024.6      6   0
CHAMBERS ISLAND  1300   10      20/ 22/ 26 1025.4S
MENOMINEE LKSHOR 1300    9      30/ 27     1026.0F
$$



USA.gov is the U.S. government's official web portal to all federal, state and local government web resources and services.